When you browse on this site, cookies collect data to enhance your experience and personalize the content and advertising you see.
Visit our Privacy Policy to learn more. By continuing to use the site, you agree to this use of cookies and data.
  • In Hungary
  • List of Countries
  • For 7 days
  • Water Temperature
  • Satellite Maps
  • Weather Map
  • News
  • Weather Widgets
  • user-avatar
    Login

    Hourly Weather Yazevka

    Today, 17 November, Saturday

    Time Temperature Precipitation Wind Pressure Humidity
    00:00 -5°C° 0 mm 2 mps 777 mmHg 29%
    01:00 -5°C° 0 mm 2 mps 777 mmHg 29%
    02:00 -5°C° 0 mm 2 mps 777 mmHg 29%
    03:00 -5°C° 0 mm 2 mps 776 mmHg 29%
    04:00 -5°C° 0 mm 2 mps 776 mmHg 29%
    05:00 -6°C° 0 mm 3 mps 775 mmHg 28%
    06:00 -6°C° 0 mm 3 mps 774 mmHg 28%
    07:00 -6°C° 0 mm 3 mps 774 mmHg 26%
    08:00 -5°C° 0 mm 3 mps 773 mmHg 25%
    09:00 -4°C° 0 mm 4 mps 773 mmHg 23%
    10:00 -3°C° 0 mm 4 mps 772 mmHg 23%
    11:00 -2°C° 0 mm 4 mps 772 mmHg 22%
    12:00 -1°C° 0 mm 4 mps 771 mmHg 22%
    13:00 -1°C° 0 mm 4 mps 771 mmHg 24%
    14:00 -1°C° 0 mm 4 mps 770 mmHg 26%
    15:00 -1°C° 0 mm 3 mps 770 mmHg 28%
    16:00 -1°C° 0 mm 3 mps 769 mmHg 29%
    17:00 -1°C° 0 mm 3 mps 769 mmHg 30%
    18:00 -2°C° 0 mm 3 mps 768 mmHg 31%
    19:00 -2°C° 0 mm 3 mps 768 mmHg 32%
    20:00 -2°C° 0 mm 3 mps 767 mmHg 32%
    21:00 -2°C° 0 mm 3 mps 767 mmHg 32%
    22:00 -2°C° 0 mm 3 mps 766 mmHg 32%
    23:00 -2°C° 0 mm 3 mps 766 mmHg 32%

    Tomorrow, 18 November, Sunday

    Time Temperature Precipitation Wind Pressure Humidity
    00:00 -2°C° 0 mm 3 mps 766 mmHg 32%
    01:00 -2°C° 0 mm 3 mps 765 mmHg 32%
    02:00 -2°C° 0 mm 3 mps 765 mmHg 32%
    03:00 -2°C° 0 mm 3 mps 765 mmHg 33%
    04:00 -3°C° 0 mm 4 mps 764 mmHg 33%
    05:00 -3°C° 0 mm 4 mps 764 mmHg 34%
    06:00 -3°C° 0 mm 4 mps 764 mmHg 34%
    07:00 -3°C° 0 mm 4 mps 764 mmHg 34%
    08:00 -2°C° 0 mm 4 mps 764 mmHg 33%
    09:00 -2°C° 0 mm 4 mps 764 mmHg 32%
    10:00 -1°C° 0 mm 4 mps 764 mmHg 32%
    11:00 -1°C° 0 mm 4 mps 764 mmHg 32%
    12:00 0°C° 0 mm 4 mps 764 mmHg 31%
    13:00 0°C° 0 mm 3 mps 764 mmHg 33%
    14:00 0°C° 0 mm 3 mps 764 mmHg 35%
    15:00 -1°C° 0 mm 3 mps 764 mmHg 37%
    16:00 -1°C° 0 mm 3 mps 764 mmHg 38%
    17:00 -2°C° 0 mm 3 mps 764 mmHg 39%
    18:00 -2°C° 0 mm 3 mps 765 mmHg 40%
    19:00 -2°C° 0 mm 3 mps 765 mmHg 41%
    20:00 -4°C° 0 mm 3 mps 765 mmHg 41%
    21:00 -3°C° 0 mm 2 mps 765 mmHg 41%
    22:00 -3°C° 0 mm 2 mps 765 mmHg 42%
    23:00 -3°C° 0 mm 2 mps 765 mmHg 43%

    Day after tomorrow, 19 November, Monday

    Time Temperature Precipitation Wind Pressure Humidity
    00:00 -3°C° 0 mm 2 mps 766 mmHg 44%
    01:00 -3°C° 0 mm 2 mps 766 mmHg 45%
    02:00 -3°C° 0 mm 2 mps 766 mmHg 45%
    03:00 -4°C° 0 mm 2 mps 766 mmHg 46%
    04:00 -4°C° 0 mm 2 mps 766 mmHg 46%
    05:00 -4°C° 0 mm 2 mps 767 mmHg 47%
    06:00 -4°C° 0 mm 2 mps 767 mmHg 47%
    07:00 -4°C° 0 mm 2 mps 767 mmHg 46%
    08:00 -1°C° 0 mm 1 mps 767 mmHg 44%
    09:00 -1°C° 0 mm 1 mps 768 mmHg 43%
    10:00 0°C° 0 mm 1 mps 768 mmHg 41%
    11:00 -1°C° 0 mm 2 mps 768 mmHg 40%
    12:00 +1°C° 0 mm 2 mps 768 mmHg 39%
    13:00 +1°C° 0 mm 1 mps 768 mmHg 41%
    14:00 +1°C° 0 mm 1 mps 768 mmHg 44%
    15:00 0°C° 0 mm 1 mps 769 mmHg 47%
    16:00 0°C° 0 mm 1 mps 769 mmHg 50%
    17:00 0°C° 0 mm 1 mps 769 mmHg 53%
    18:00 -1°C° 0 mm 1 mps 769 mmHg 56%
    19:00 -1°C° 0 mm 1 mps 769 mmHg 61%
    20:00 -1°C° 0 mm 1 mps 769 mmHg 65%
    21:00 -1°C° 0 mm 1 mps 768 mmHg 69%
    22:00 -1°C° 0 mm 1 mps 769 mmHg 73%
    23:00 -1°C° 0 mm 1 mps 769 mmHg 77%

    20 November, Tuesday

    Time Temperature Precipitation Wind Pressure Humidity
    00:00 -1°C° 0 mm 1 mps 769 mmHg 80%
    01:00 -1°C° 0 mm 1 mps 769 mmHg 82%
    02:00 -1°C° 0 mm 1 mps 769 mmHg 85%
    03:00 -1°C° 0 mm 1 mps 769 mmHg 87%
    04:00 -2°C° 0 mm 0 mps 768 mmHg 89%
    05:00 -2°C° 0 mm 0 mps 768 mmHg 91%
    06:00 -2°C° 0 mm 0 mps 768 mmHg 93%
    07:00 -1°C° 0 mm 0 mps 768 mmHg 92%
    08:00 -1°C° 0 mm 0 mps 768 mmHg 91%
    09:00 -1°C° 0 mm 0 mps 768 mmHg 91%
    10:00 0°C° 0 mm 0 mps 768 mmHg 88%
    11:00 0°C° 0 mm 0 mps 768 mmHg 86%
    12:00 +1°C° 0 mm 1 mps 767 mmHg 84%
    13:00 +1°C° 0 mm 1 mps 767 mmHg 86%
    14:00 +1°C° 0 mm 1 mps 767 mmHg 88%
    15:00 +1°C° 0 mm 1 mps 767 mmHg 89%
    16:00 0°C° 0 mm 1 mps 767 mmHg 90%
    17:00 0°C° 0 mm 1 mps 766 mmHg 92%
    18:00 0°C° 0 mm 1 mps 766 mmHg 93%
    19:00 0°C° 0 mm 1 mps 766 mmHg 92%
    20:00 0°C° 0 mm 1 mps 766 mmHg 92%
    21:00 0°C° 0 mm 1 mps 765 mmHg 92%
    22:00 -1°C° 0 mm 1 mps 765 mmHg 91%
    23:00 -1°C° 0 mm 1 mps 765 mmHg 90%

    21 November, Wednesday

    Time Temperature Precipitation Wind Pressure Humidity
    00:00 -1°C° 0 mm 1 mps 765 mmHg 89%
    01:00 -1°C° 0 mm 1 mps 764 mmHg 88%
    02:00 -1°C° 0 mm 1 mps 764 mmHg 87%
    03:00 -3°C° 0 mm 2 mps 764 mmHg 87%
    04:00 -3°C° 0 mm 2 mps 763 mmHg 87%
    05:00 -4°C° 0 mm 2 mps 763 mmHg 87%
    06:00 -4°C° 0 mm 2 mps 763 mmHg 87%
    07:00 -3°C° 0 mm 2 mps 762 mmHg 86%
    08:00 -3°C° 0 mm 2 mps 762 mmHg 85%
    09:00 -3°C° 0 mm 2 mps 762 mmHg 85%
    10:00 -2°C° 0 mm 3 mps 761 mmHg 83%
    11:00 -2°C° 0 mm 3 mps 761 mmHg 81%
    12:00 -1°C° 0 mm 3 mps 761 mmHg 78%
    13:00 -1°C° 0 mm 3 mps 760 mmHg 80%
    14:00 -2°C° 0 mm 3 mps 760 mmHg 82%
    15:00 -2°C° 0 mm 3 mps 759 mmHg 84%
    16:00 -2°C° 0.1 mm 3 mps 759 mmHg 86%
    17:00 -2°C° 0.1 mm 3 mps 759 mmHg 87%
    18:00 -3°C° 0.1 mm 4 mps 759 mmHg 89%
    19:00 -3°C° 0.2 mm 4 mps 758 mmHg 89%
    20:00 -3°C° 0.2 mm 4 mps 758 mmHg 89%
    21:00 -2°C° 0.2 mm 3 mps 757 mmHg 89%
    22:00 -4°C° 0 mm 3 mps 757 mmHg 88%
    23:00 -4°C° 0 mm 3 mps 757 mmHg 88%

    22 November, Thursday

    Time Temperature Precipitation Wind Pressure Humidity
    00:00 -4°C° 0 mm 3 mps 757 mmHg 87%
    01:00 -4°C° 0 mm 3 mps 756 mmHg 87%
    02:00 -4°C° 0 mm 3 mps 756 mmHg 88%
    03:00 -4°C° 0 mm 3 mps 756 mmHg 88%
    04:00 -4°C° 0 mm 3 mps 756 mmHg 87%
    05:00 -4°C° 0 mm 3 mps 756 mmHg 87%
    06:00 -5°C° 0 mm 3 mps 756 mmHg 86%
    07:00 -5°C° 0 mm 3 mps 756 mmHg 83%
    08:00 -5°C° 0 mm 3 mps 756 mmHg 79%
    09:00 -5°C° 0 mm 3 mps 756 mmHg 76%
    10:00 -5°C° 0 mm 3 mps 756 mmHg 72%
    11:00 -5°C° 0 mm 3 mps 756 mmHg 68%
    12:00 -5°C° 0 mm 3 mps 756 mmHg 64%
    13:00 -4°C° 0 mm 2 mps 756 mmHg 66%
    14:00 -4°C° 0 mm 2 mps 755 mmHg 67%
    15:00 -5°C° 0 mm 2 mps 755 mmHg 68%
    16:00 -6°C° 0 mm 3 mps 755 mmHg 71%
    17:00 -6°C° 0 mm 3 mps 755 mmHg 73%
    18:00 -6°C° 0 mm 3 mps 754 mmHg 75%
    19:00 -7°C° 0.1 mm 4 mps 754 mmHg 78%
    20:00 -7°C° 0.1 mm 4 mps 754 mmHg 81%
    21:00 -7°C° 0.1 mm 5 mps 753 mmHg 84%
    22:00 -6°C° 0.2 mm 5 mps 753 mmHg 85%
    23:00 -6°C° 0.2 mm 5 mps 753 mmHg 86%
    Show more